EHI
0 0 0 0 0 0 0 0 0 0 0 0 0 0 0 0 0 0 0 0 0 0 0 0 0 0 0 0 0 0 0 0 0 0 0 0 0 0 0 0 0 0 0 0
0 0 0 0 0 0 0 0 0 0 0 0 0 0 0 0 0 0 0 0 0 0 0 0 0 0 0 0 0 0 0 0 0 0 0 0 0 0 0 0 0 0 0 0
0 0 0 0 0 0 0 0 0 0 0 0 0 0 0 0 0 0 0 0 0 0 0 0 0 0 0 0 0 0 0 0 0 0 0 0 0 0 0 0 0 0 0 0
0 0 0 0 0 0 0 0 0 0 0 0 0 0 0 0 0 0 0 0 0 0 0 0 0 0 0 0 0 0 0 0 0 0 0 0 0 0 0 0 0 0 0 0
0 0 0 0 0 0 0 0 0 0 0 0 0 0 0 0 0 0 0 0 0 0 0 0 0 0 0 0 0 0 0 0 0 0 0 0 0 0 0 0 0 0 0 0
0 0 0 0 0 0 0 0 0 0 0 0 0 0 0 0 0 0 0 0 0 0 0 0 0 0 0 0 0 0 0 0 0 0 0 0 0 0 0 0 0 0 0 0
0 0 0 0 0 0 0 0 0 0 0 0 0 0 0 0 0 0 0 0 0 0 0 0 0 0 0 0 0 0 0 0 0 0 0 0 0 0 0 0 0 0 0 0
0 0 0 0 0 0 0 0 0 0 0 0 0 0 0 0 0 0 0 0 0 0 0 0 0 0 0 0 0 0 0 0 0 0 0 0 0 0 0 0 0 0 0 0
0 0 0 0 0 0 0 0 0 0 0 0 0 0 0 0 0 0 0 0 0 0 0 0 0 0 0 0 0 0 0 0 0 0 0 0 0 0 0 0 0 0 0 0
0 0 0 0 0 0 0 0 0 0 0 0 0 0 0 0 0 0 0 0 0 0 0 0 0 0 0 0 0 0 0 0 0 0 0 0 0 0 0 0 0 0 0 0
0 0 0 0 0 0 0 0 0 0 0 0 0 0 0 0 0 0 0 0 0 0 0 0 0 0 0 0 0 0 0 0 0 0 0 0 0 0 0 0 0 0 0 0
0 0 0 0 0 0 0 0 0 0 0 0 0 0 0 0 0 0 0 0 0 0 0 0 0 0 0 0 0 0 0 0 0 0 0 0 0 0 0 0 0 0 0 0
0 0 0 0 0 0 0 0 0 0 0 0 0 0 0 0 0 0 0 0 0 0 0 0 0 0 0 0 0 0 0 0 0 0 0 0 0 0 0 0 0 0 0 0
0 0 0 0 0 0 0 0 0 0 0 0 0 0 0 0 0 0 0 0 0 0 0 0 0 0 0 0 0 0 0 0 0 0 0 0 0 0 0 0 0 0 0 0
0 0 0 0 0 0 0 0 0 0 0 0 0 0 0 0 0 0 0 0 0 0 0 0 0 0 0 0 0 0 0 0 0 0 0 0 0 0 0 0 0 0 0 0
0 0 0 0 0 0 0 0 0 0 0 0 0 0 0 0 0 0 0 0 0 0 0 0 0 0 0 0 0 0 0 0 0 0 0 0 0 0 0 0 0 0 0 0
0 0 0 0 0 0 0 0 0 0 0 0 0 0 0 0 0 0 0 0 0 0 0 0 0 0 0 0 0 0 0 0 0 0 0 0 0 0 0 0 0 0 0 0
0 0 0 0 0 0 0 0 0 0 0 0 0 0 0 0 0 0 0 0 0 0 0 0 0 0 0 0 0 0 0 0 0 0 0 0 0 0 0 0 0 0 0 0
0 0 0 0 0 0 0 0 0 0 0 0 0 0 0 0 0 0 0 0 0 0 0 0 0 0 0 0 0 0 0 0 0 0 0 0 0 0 0 0 0 0 0 0
0 0 0 0 0 0 0 0 0 0 0 0 0 0 0 0 0 0 0 0 0 0 0 0 0 0 0 0 0 0 0 0 0 0 0 0 0 0 0 0 0 0 0 0
0 0 0 0 0 0 0 0 0 0 0 0 0 0 0 0 0 0 0 0 0 0 0 0 0 0 0 0 0 0 0 0 0 0 0 0 0 0 0 0 0 0 0 0
0 0 0 0 0 0 0 0 0 0 0 0 0 0 0 0 0 0 0 0 0 0 0 0 0 0 0 0 0 0 0 0 0 0 0 0 0 0 0 0 0 0 0 0
0 0 0 0 0 0 0 0 0 0 0 0 0 0 0 0 0 0 0 0 0 0 0 0 0 0 0 0 0 0 0 0 0 0 0 0 0 0 0 0 0 0 0 0
0 0 0 0 0 0 0 0 0 0 0 0 0 0 0 0 0 0 0 0 0 0 0 0 0 0 0 0 0 0 0 0 0 0 0 0 0 0 0 0 0 0 0 0
0 0 0 0 0 0 0 0 0 0 0 0 0 0 0 0 0 0 0 0 0 0 0 0 0 0 0 0 0 0 0 0 0 0 0 0 0 0 0 0 0 0 0 0
0 0 0 0 0 0 0 0 0 0 0 0 0 0 0 0 0 0 0 0 0 0 0 0 0 0 0 0 0 0 0 0 0 0 0 0 0 0 0 0 0 0 0 0
0 0 0 0 0 0 0 0 0 0 0 0 0 0 0 0 0 0 0 0 0 0 0 0 0 0 0 0 0 0 0 0 0 0 0 0 0 0 0 0 0 0 0 0
Wind_Speed
7 7 5 7 8 7 9 9 9 9 9 10 7 6 5 4 3 3 3 3 4 4 4 3 3 3 3 3 3 4 4 4 4 4 3 3 3 3 3 3 3 3 3 3
6 6 7 9 10 10 10 9 10 9 12 9 6 3 4 4 3 3 4 4 4 4 4 4 4 4 3 4 4 3 4 4 4 3 3 3 3 3 2 3 3 2 3 3
5 4 4 9 9 10 8 7 8 11 11 5 4 4 4 4 3 3 3 3 4 4 4 4 4 4 4 4 3 3 4 3 3 3 3 3 3 3 3 3 2 3 3 3
3 1 8 8 2 5 6 6 6 5 5 5 5 4 3 2 2 3 4 4 4 4 3 3 2 2 2 2 3 3 3 3 3 3 3 3 3 3 3 2 3 3 4 4
3 4 9 7 2 3 4 5 4 6 6 5 2 1 3 2 2 3 4 4 4 4 3 2 2 2 1 2 2 3 4 4 4 3 4 3 4 4 3 3 3 4 4 4
4 5 8 6 2 1 2 4 3 3 4 3 0 1 5 3 3 3 3 3 3 2 2 2 2 1 1 2 3 4 4 4 4 4 4 4 4 4 3 3 4 3 4 4
7 7 9 5 2 2 2 6 3 2 3 3 4 5 4 3 3 3 3 3 2 2 2 2 2 1 2 3 4 5 4 3 3 4 4 4 4 3 3 3 3 3 4 4
6 7 10 3 3 4 6 2 2 2 3 3 4 4 3 3 3 3 3 3 2 2 3 2 2 2 3 5 5 3 3 3 3 3 3 3 3 3 3 3 3 3 3 4
8 8 4 3 5 4 2 2 3 3 3 3 3 4 4 3 3 3 3 3 2 2 3 3 3 3 4 5 3 3 3 3 3 3 3 3 3 3 3 3 3 3 3 4
5 7 4 3 4 3 3 4 3 3 3 3 3 4 4 4 3 3 3 3 3 3 4 4 4 3 4 4 3 3 3 4 3 3 3 3 2 3 3 3 3 3 4 4
6 5 4 4 4 4 3 3 2 3 2 3 3 4 4 4 4 3 3 3 3 3 4 5 5 4 4 3 3 3 4 3 3 3 3 3 3 3 4 4 5 5 4 4
7 6 5 6 4 3 3 3 4 3 3 3 3 4 4 4 4 3 4 3 3 4 4 5 5 5 4 3 3 3 3 3 3 3 3 3 3 3 5 6 7 8 8 7
8 6 5 4 3 3 3 4 3 3 3 3 3 3 3 4 4 3 4 4 4 5 5 5 5 5 5 3 3 4 4 4 3 3 3 3 3 3 3 4 5 7 8 9
5 2 3 3 3 3 3 3 2 2 2 3 3 3 3 3 4 4 4 5 5 5 5 4 5 5 5 4 3 4 4 5 4 3 3 4 4 3 3 4 4 4 5 8
4 3 4 3 2 2 2 1 1 3 3 3 3 3 3 4 5 5 5 4 4 4 5 4 5 6 4 3 4 4 4 3 3 3 3 4 3 3 4 4 4 4 3 4
3 2 2 2 2 2 2 2 3 4 3 3 4 4 4 4 5 5 4 4 4 5 5 5 5 6 4 3 4 3 4 6 5 3 3 3 3 4 4 4 4 4 4 4
2 2 2 2 3 3 3 3 4 4 4 4 5 5 4 4 4 5 5 4 4 5 5 5 6 5 4 4 3 3 3 4 5 3 3 4 4 4 4 4 4 5 4 5
4 4 4 4 4 4 4 4 4 4 4 5 4 4 4 4 5 6 6 5 4 5 5 5 5 5 4 4 3 3 3 3 3 3 3 3 4 4 4 4 5 5 4 5
2 3 3 4 4 4 4 5 5 5 4 4 4 4 5 5 5 6 5 4 4 6 6 5 7 5 4 4 4 2 3 3 3 3 3 5 5 4 4 4 4 5 4 4
2 2 3 4 4 4 5 5 5 5 4 4 4 5 5 5 5 5 4 5 5 5 5 5 5 4 4 4 5 3 3 4 4 4 3 3 4 4 4 4 4 4 4 4
4 4 4 4 5 5 5 5 5 5 5 4 5 6 6 6 5 4 4 5 5 4 4 6 4 3 3 4 5 3 3 3 4 4 3 4 4 4 4 4 4 4 4 4
4 4 5 5 5 5 5 5 5 5 5 5 5 5 5 5 5 5 5 5 5 6 4 3 3 5 6 6 3 3 3 4 4 3 3 4 4 4 4 4 4 4 4 4
4 4 5 5 5 5 5 5 4 4 5 5 5 5 5 5 4 4 5 4 3 6 4 3 5 8 8 4 3 3 3 4 4 3 4 4 4 4 4 4 4 4 4 4
5 5 5 4 4 4 5 5 4 4 4 5 5 5 5 4 4 4 4 6 7 7 4 5 8 9 7 3 2 3 3 3 4 4 4 4 4 4 4 4 4 4 3 4
5 5 4 4 4 4 5 5 4 4 4 4 5 5 4 4 4 4 4 4 7 7 4 6 8 8 5 3 3 3 3 4 4 4 3 3 3 3 3 3 3 3 3 3
5 4 4 4 4 4 4 3 3 3 3 4 4 3 3 3 3 4 3 4 5 6 5 4 4 5 3 3 3 4 3 4 4 4 3 3 3 4 3 3 4 3 3 3
4 4 3 4 4 3 3 3 4 4 3 4 5 4 3 3 3 3 4 3 3 3 3 3 3 3 3 3 4 3 3 3 3 3 3 3 3 3 3 4 3 3 3 3
Wind_Direction
253 263 250 244 245 225 216 216 218 242 240 256 256 253 253 253 246 240 244 237 227 226 230 226 222 222 223 226 217 203 196 206 220 225 222 228 237 239 238 236 237 235 239 247
272 261 258 261 251 236 233 231 237 257 264 259 264 262 268 260 242 243 255 252 246 242 237 230 226 226 227 228 220 201 202 216 222 218 220 229 235 236 238 247 248 242 244 249
262 285 299 263 236 220 219 215 207 233 251 268 264 258 250 248 237 239 252 257 254 251 245 239 235 227 228 231 218 203 214 223 224 221 227 238 239 237 239 245 248 252 253 250
255 279 241 245 233 209 217 235 224 242 267 264 256 254 249 227 228 255 261 264 263 259 260 260 246 238 236 231 211 209 221 229 228 222 233 243 242 241 246 246 250 253 255 252
207 242 271 286 266 200 204 257 235 239 264 277 285 337 300 272 242 245 255 260 260 253 253 252 249 237 229 239 229 224 230 235 233 225 230 235 241 247 246 246 253 253 253 249
202 226 245 248 259 232 135 261 265 229 245 263 197 259 269 288 297 288 286 280 280 280 280 263 262 229 221 241 237 240 239 239 240 230 226 233 240 248 247 239 247 255 261 255
216 236 259 251 263 95 182 251 255 235 236 224 221 228 251 283 296 290 292 298 297 290 281 269 271 245 246 251 250 250 247 245 244 237 232 236 242 245 245 247 254 257 264 268
196 219 248 227 136 186 225 248 228 241 234 232 249 262 270 277 283 293 304 308 301 292 288 281 254 235 251 257 259 257 248 243 243 243 241 237 233 247 246 239 248 258 266 278
199 219 239 192 201 222 215 234 244 242 258 247 257 266 276 276 283 288 288 290 291 274 280 282 263 237 248 262 261 246 241 245 248 250 244 232 227 237 246 235 237 253 257 270
243 257 254 245 246 248 233 231 238 231 247 246 255 264 274 279 285 291 292 287 283 277 281 286 281 267 254 262 253 236 241 247 245 244 252 245 236 231 233 236 241 249 254 262
250 269 295 274 246 243 244 244 251 258 246 239 251 267 266 273 277 277 285 284 275 272 275 280 285 282 274 261 241 240 243 246 244 242 246 253 250 238 239 237 231 241 247 246
240 234 232 254 257 249 245 255 254 257 271 271 246 255 265 270 272 275 281 287 290 284 279 282 283 282 279 264 239 236 247 248 243 241 242 244 253 273 262 253 261 258 257 258
244 250 239 248 253 245 241 250 254 249 249 266 272 258 261 267 272 279 284 286 282 282 281 281 283 283 280 270 249 239 244 248 246 240 236 238 239 245 273 283 269 264 263 265
254 249 255 248 247 260 260 262 259 264 262 257 266 271 272 272 279 282 280 279 280 281 282 278 277 279 279 271 257 250 249 249 246 240 236 235 237 240 245 259 279 279 273 271
252 230 229 241 254 285 289 290 303 296 293 292 285 283 280 276 276 277 280 283 284 283 283 279 279 284 287 271 258 254 252 251 244 239 235 236 238 240 244 248 257 270 278 278
247 247 219 217 254 286 298 289 280 284 290 290 293 290 282 273 272 278 282 281 280 282 283 280 279 283 286 276 269 265 257 255 253 240 235 238 236 238 242 245 252 257 262 265
204 236 233 236 254 264 265 261 259 269 277 279 281 284 288 291 291 290 290 287 277 276 277 274 277 283 281 272 262 262 262 259 257 249 239 239 241 241 242 243 249 255 258 258
220 229 231 225 232 252 267 269 267 270 270 271 279 284 283 280 281 284 288 296 297 295 284 273 275 281 278 274 265 261 259 255 248 248 247 245 249 245 245 246 251 258 266 268
249 238 246 247 245 244 250 258 263 264 266 270 271 271 270 269 270 276 283 285 286 290 289 284 288 287 278 274 274 259 251 255 259 257 252 255 261 252 247 249 254 257 262 265
280 269 266 269 264 251 255 261 264 266 264 259 262 271 277 276 273 274 274 269 262 264 278 289 290 280 276 272 274 260 249 249 254 261 258 251 252 252 250 251 254 257 258 260
279 280 280 277 277 272 263 261 259 264 268 257 252 260 269 276 273 267 269 279 279 275 279 288 287 278 277 279 278 261 251 251 252 254 253 254 257 258 257 254 254 256 258 260
275 276 280 280 277 281 279 270 259 261 266 265 259 259 266 275 277 274 259 256 271 289 295 281 278 283 289 291 274 261 257 256 256 252 249 250 253 255 255 255 255 256 256 255
275 274 276 276 272 275 284 282 269 261 260 260 260 260 260 264 264 269 282 275 266 284 290 274 286 295 299 295 276 268 265 262 260 255 252 250 251 252 254 256 257 256 254 253
274 273 273 274 275 279 284 285 281 273 266 267 265 261 259 271 277 258 255 276 287 292 283 281 293 298 301 291 275 272 269 266 264 260 254 251 250 251 253 255 258 257 253 249
273 272 275 279 278 271 269 279 288 285 281 277 274 268 259 251 259 273 272 268 280 293 286 286 293 298 297 278 272 271 270 266 266 264 256 254 253 253 253 252 253 254 253 250
274 274 272 267 265 271 275 276 276 277 278 283 287 280 270 264 260 266 272 273 275 289 291 284 285 290 286 280 274 271 271 275 277 269 259 259 258 258 258 257 256 255 254 253
283 280 283 287 283 272 268 267 269 274 274 275 285 288 282 277 273 272 274 277 281 284 285 284 280 275 277 276 275 273 271 272 270 265 261 258 255 253 253 252 253 252 250 249